Time,TemperatureF,DewpointF,PressureIn,WindDirection,WindDirectionDegrees,WindSpeedMPH,WindSpeedGustMPH,Humidity,HourlyPrecipIn,Conditions,Clouds,dailyrainin,SoftwareType,DateUTC
2013-03-11 00:00:00,64.2,60.3,29.92,SSE,148,3.0,6.0,87,0.00,,---,0.00,VWS V14.01,2013-03-11 05:00:00,
2013-03-11 00:05:00,64.2,60.3,29.91,SE,145,3.0,9.0,87,0.00,,---,0.00,VWS V14.01,2013-03-11 05:05:00,
2013-03-11 00:10:00,64.3,60.3,29.90,SSW,208,3.0,15.0,87,0.00,,---,0.00,VWS V14.01,2013-03-11 05:10:00,
2013-03-11 00:15:00,64.3,60.3,29.90,SE,129,11.0,15.0,87,0.00,,---,0.00,VWS V14.01,2013-03-11 05:15:00,
2013-03-11 00:20:00,64.3,60.0,29.90,SSW,205,4.0,15.0,86,0.00,,---,0.00,VWS V14.01,2013-03-11 05:20:00,
2013-03-11 00:25:00,64.3,60.3,29.90,SSE,151,2.0,15.0,87,0.00,,---,0.00,VWS V14.01,2013-03-11 05:25:00,
2013-03-11 00:30:00,64.2,60.3,29.90,SE,133,3.0,7.0,87,0.00,,---,0.00,VWS V14.01,2013-03-11 05:30:00,
2013-03-11 00:35:00,64.2,60.3,29.90,SE,140,5.0,14.0,87,0.00,,---,0.00,VWS V14.01,2013-03-11 05:35:00,
2013-03-11 00:40:00,64.2,60.3,29.91,ENE,68,5.0,14.0,87,0.00,,---,0.00,VWS V14.01,2013-03-11 05:40:00,
2013-03-11 00:45:00,64.2,60.3,29.91,East,86,6.0,14.0,87,0.00,,---,0.00,VWS V14.01,2013-03-11 05:45:00,
2013-03-11 00:50:00,64.2,60.3,29.91,SE,140,0.0,14.0,87,0.00,,---,0.00,VWS V14.01,2013-03-11 05:50:00,
2013-03-11 00:55:00,64.3,60.3,29.91,South,179,1.0,14.0,87,0.00,,---,0.00,VWS V14.01,2013-03-11 05:55:00,
2013-03-11 01:00:00,64.4,60.5,29.91,WNW,291,1.0,4.0,87,0.00,,---,0.00,VWS V14.01,2013-03-11 06:00:00,
2013-03-11 01:05:00,64.4,60.5,29.91,NE,40,1.0,6.0,87,0.00,,---,0.00,VWS V14.01,2013-03-11 06:05:00,
2013-03-11 01:10:00,64.3,60.3,29.91,SE,145,3.0,12.0,87,0.00,,---,0.00,VWS V14.01,2013-03-11 06:10:00,
2013-03-11 01:15:00,64.3,60.7,29.91,SSE,155,6.0,12.0,88,0.00,,---,0.00,VWS V14.01,2013-03-11 06:15:00,
2013-03-11 01:20:00,64.3,60.7,29.92,SE,124,3.0,12.0,88,0.00,,---,0.00,VWS V14.01,2013-03-11 06:20:00,
2013-03-11 01:25:00,64.3,60.7,29.91,SSE,158,0.0,12.0,88,0.00,,---,0.00,VWS V14.01,2013-03-11 06:25:00,
2013-03-11 01:30:00,64.2,60.6,29.92,SSE,162,1.0,4.0,88,0.00,,---,0.00,VWS V14.01,2013-03-11 06:30:00,
2013-03-11 01:35:00,64.1,60.5,29.92,South,188,3.0,7.0,88,0.00,,---,0.00,VWS V14.01,2013-03-11 06:35:00,
2013-03-11 01:40:00,64.1,60.5,29.92,SE,134,0.0,10.0,88,0.00,,---,0.00,VWS V14.01,2013-03-11 06:40:00,
2013-03-11 01:45:00,64.0,60.7,29.92,South,169,2.0,10.0,89,0.00,,---,0.00,VWS V14.01,2013-03-11 06:45:00,
2013-03-11 01:50:00,64.0,60.7,29.92,North,9,2.0,10.0,89,0.00,,---,0.00,VWS V14.01,2013-03-11 06:50:00,
2013-03-11 01:55:00,64.0,60.7,29.92,South,177,1.0,10.0,89,0.00,,---,0.00,VWS V14.01,2013-03-11 06:55:00,
2013-03-11 02:00:00,64.0,60.7,29.92,SSW,211,2.0,4.0,89,0.00,,---,0.00,VWS V14.01,2013-03-11 07:00:00,
2013-03-11 02:05:00,64.0,60.7,29.92,SSW,197,0.0,7.0,89,0.00,,---,0.00,VWS V14.01,2013-03-11 07:05:00,
2013-03-11 02:10:00,64.0,60.7,29.92,SSW,212,1.0,7.0,89,0.00,,---,0.00,VWS V14.01,2013-03-11 07:10:00,
2013-03-11 02:15:00,64.0,60.7,29.91,SE,146,1.0,7.0,89,0.00,,---,0.00,VWS V14.01,2013-03-11 07:15:00,
2013-03-11 02:20:00,64.1,61.1,29.91,ESE,103,2.0,7.0,90,0.00,,---,0.00,VWS V14.01,2013-03-11 07:20:00,
2013-03-11 02:25:00,64.1,61.1,29.91,SSW,207,1.0,8.0,90,0.00,,---,0.00,VWS V14.01,2013-03-11 07:25:00,
2013-03-11 02:30:00,64.2,61.2,29.90,SE,138,2.0,8.0,90,0.00,,---,0.00,VWS V14.01,2013-03-11 07:30:00,
2013-03-11 02:35:00,64.2,61.2,29.90,SSE,156,0.0,8.0,90,0.00,,---,0.00,VWS V14.01,2013-03-11 07:35:00,
2013-03-11 02:40:00,64.3,61.3,29.90,SE,136,4.0,8.0,90,0.00,,---,0.00,VWS V14.01,2013-03-11 07:40:00,
2013-03-11 02:45:00,64.4,61.4,29.90,SW,219,2.0,8.0,90,0.00,,---,0.00,VWS V14.01,2013-03-11 07:45:00,
2013-03-11 02:50:00,64.4,61.4,29.90,South,172,0.0,8.0,90,0.00,,---,0.00,VWS V14.01,2013-03-11 07:50:00,
2013-03-11 02:55:00,64.5,61.5,29.90,SSE,167,5.0,8.0,90,0.00,,---,0.00,VWS V14.01,2013-03-11 07:55:00,
2013-03-11 03:00:00,64.5,61.5,29.89,ESE,122,3.0,5.0,90,0.00,,---,0.00,VWS V14.01,2013-03-11 08:00:00,
2013-03-11 03:05:00,64.6,61.6,29.89,SSE,149,1.0,5.0,90,0.00,,---,0.00,VWS V14.01,2013-03-11 08:05:00,
2013-03-11 03:10:00,64.6,61.6,29.89,North,1,1.0,5.0,90,0.00,,---,0.00,VWS V14.01,2013-03-11 08:10:00,
2013-03-11 03:15:00,64.6,61.6,29.89,South,190,1.0,5.0,90,0.00,,---,0.00,VWS V14.01,2013-03-11 08:15:00,
2013-03-11 03:20:00,64.5,61.8,29.88,SE,137,2.0,5.0,91,0.00,,---,0.00,VWS V14.01,2013-03-11 08:20:00,
2013-03-11 03:25:00,64.4,61.7,29.87,SSE,160,6.0,6.0,91,0.00,,---,0.00,VWS V14.01,2013-03-11 08:25:00,
2013-03-11 03:30:00,64.3,61.6,29.87,SW,233,0.0,1.0,91,0.00,,---,0.00,VWS V14.01,2013-03-11 08:30:00,
2013-03-11 03:35:00,64.2,61.5,29.87,ESE,116,1.0,4.0,91,0.00,,---,0.00,VWS V14.01,2013-03-11 08:35:00,
2013-03-11 03:40:00,64.1,61.7,29.87,SE,130,1.0,6.0,92,0.00,,---,0.00,VWS V14.01,2013-03-11 08:40:00,
2013-03-11 03:45:00,64.1,61.7,29.86,ESE,108,4.0,6.0,92,0.00,,---,0.00,VWS V14.01,2013-03-11 08:45:00,
2013-03-11 03:50:00,64.0,61.6,29.87,SE,136,1.0,6.0,92,0.00,,---,0.00,VWS V14.01,2013-03-11 08:50:00,
2013-03-11 03:55:00,64.0,61.6,29.87,SSW,212,0.0,6.0,92,0.00,,---,0.00,VWS V14.01,2013-03-11 08:55:00,
2013-03-11 04:00:00,63.9,61.5,29.86,SE,145,0.0,0.0,92,0.00,,---,0.00,VWS V14.01,2013-03-11 09:00:00,
2013-03-11 04:05:00,64.0,61.9,29.86,SE,136,2.0,5.0,93,0.00,,---,0.00,VWS V14.01,2013-03-11 09:05:00,
2013-03-11 04:10:00,64.0,61.9,29.86,NE,53,1.0,6.0,93,0.00,,---,0.00,VWS V14.01,2013-03-11 09:10:00,
2013-03-11 04:15:00,64.0,61.9,29.85,SSE,158,3.0,6.0,93,0.00,,---,0.00,VWS V14.01,2013-03-11 09:15:00,
2013-03-11 04:20:00,64.1,62.0,29.85,SSE,147,4.0,6.0,93,0.00,,---,0.00,VWS V14.01,2013-03-11 09:20:00,
2013-03-11 04:25:00,64.1,62.0,29.85,ESE,117,1.0,7.0,93,0.00,,---,0.00,VWS V14.01,2013-03-11 09:25:00,
2013-03-11 04:30:00,64.1,62.0,29.85,SSE,150,1.0,4.0,93,0.00,,---,0.00,VWS V14.01,2013-03-11 09:30:00,
2013-03-11 04:35:00,64.2,62.1,29.85,East,98,2.0,6.0,93,0.00,,---,0.00,VWS V14.01,2013-03-11 09:35:00,
2013-03-11 04:40:00,64.2,62.1,29.85,SE,132,3.0,6.0,93,0.00,,---,0.00,VWS V14.01,2013-03-11 09:40:00,
2013-03-11 04:45:00,64.3,62.2,29.85,SSW,207,1.0,6.0,93,0.00,,---,0.00,VWS V14.01,2013-03-11 09:45:00,
2013-03-11 04:50:00,64.4,62.3,29.85,SSW,211,1.0,6.0,93,0.00,,---,0.00,VWS V14.01,2013-03-11 09:50:00,
2013-03-11 04:55:00,64.4,62.3,29.85,SSE,149,0.0,6.0,93,0.00,,---,0.00,VWS V14.01,2013-03-11 09:55:00,
2013-03-11 05:00:00,64.4,62.3,29.85,SE,139,0.0,1.0,93,0.00,,---,0.00,VWS V14.01,2013-03-11 10:00:00,
2013-03-11 05:05:00,64.5,62.4,29.84,SE,139,1.0,6.0,93,0.00,,---,0.00,VWS V14.01,2013-03-11 10:05:00,
2013-03-11 05:10:00,64.5,62.4,29.84,SE,138,1.0,7.0,93,0.00,,---,0.00,VWS V14.01,2013-03-11 10:10:00,
2013-03-11 05:15:00,64.6,62.8,29.84,South,187,1.0,7.0,94,0.00,,---,0.00,VWS V14.01,2013-03-11 10:15:00,
2013-03-11 05:20:00,64.6,62.5,29.84,ESE,115,3.0,7.0,93,0.00,,---,0.00,VWS V14.01,2013-03-11 10:20:00,
2013-03-11 05:25:00,64.6,62.5,29.85,SSW,199,2.0,7.0,93,0.00,,---,0.00,VWS V14.01,2013-03-11 10:25:00,
2013-03-11 05:30:00,64.6,62.8,29.85,SE,146,0.0,3.0,94,0.00,,---,0.00,VWS V14.01,2013-03-11 10:30:00,
2013-03-11 05:35:00,64.6,62.8,29.85,NE,46,0.0,6.0,94,0.00,,---,0.00,VWS V14.01,2013-03-11 10:35:00,
2013-03-11 05:40:00,64.5,62.7,29.85,SSW,194,0.0,6.0,94,0.00,,---,0.00,VWS V14.01,2013-03-11 10:40:00,
2013-03-11 05:45:00,64.6,62.8,29.85,SW,215,1.0,6.0,94,0.00,,---,0.00,VWS V14.01,2013-03-11 10:45:00,
2013-03-11 05:50:00,64.6,63.1,29.84,SSW,211,0.0,6.0,95,0.00,,---,0.00,VWS V14.01,2013-03-11 10:50:00,
2013-03-11 05:55:00,64.8,63.3,29.85,ESE,120,0.0,6.0,95,0.00,,---,0.00,VWS V14.01,2013-03-11 10:55:00,
2013-03-11 06:00:00,64.9,63.4,29.85,SSE,150,0.0,0.0,95,0.00,,---,0.00,VWS V14.01,2013-03-11 11:00:00,
2013-03-11 06:05:00,65.1,63.6,29.85,SSW,206,0.0,4.0,95,0.00,,---,0.00,VWS V14.01,2013-03-11 11:05:00,
2013-03-11 06:10:00,65.2,63.7,29.85,SSW,205,0.0,4.0,95,0.00,,---,0.00,VWS V14.01,2013-03-11 11:10:00,
2013-03-11 06:15:00,65.2,63.7,29.85,SSW,210,0.0,5.0,95,0.00,,---,0.00,VWS V14.01,2013-03-11 11:15:00,
2013-03-11 06:20:00,65.3,63.5,29.85,South,183,0.0,5.0,94,0.00,,---,0.00,VWS V14.01,2013-03-11 11:20:00,
2013-03-11 06:25:00,65.2,63.4,29.85,SW,224,1.0,5.0,94,0.00,,---,0.00,VWS V14.01,2013-03-11 11:25:00,
2013-03-11 06:30:00,65.2,63.4,29.85,ESE,103,0.0,2.0,94,0.00,,---,0.00,VWS V14.01,2013-03-11 11:30:00,
2013-03-11 06:35:00,65.2,63.4,29.85,South,169,0.0,2.0,94,0.00,,---,0.00,VWS V14.01,2013-03-11 11:35:00,
2013-03-11 06:40:00,65.1,63.3,29.85,SSW,195,0.0,3.0,94,0.00,,---,0.00,VWS V14.01,2013-03-11 11:40:00,
2013-03-11 06:45:00,65.0,63.5,29.85,SSW,201,0.0,5.0,95,0.00,,---,0.00,VWS V14.01,2013-03-11 11:45:00,
2013-03-11 06:50:00,64.9,63.4,29.85,SSE,156,1.0,5.0,95,0.00,,---,0.00,VWS V14.01,2013-03-11 11:50:00,
2013-03-11 06:55:00,64.8,63.3,29.85,SSE,149,1.0,5.0,95,0.00,,---,0.00,VWS V14.01,2013-03-11 11:55:00,
2013-03-11 07:00:00,64.8,63.3,29.85,SW,221,2.0,4.0,95,0.00,,---,0.00,VWS V14.01,2013-03-11 12:00:00,
2013-03-11 07:05:00,64.8,63.3,29.85,South,172,1.0,4.0,95,0.00,,---,0.00,VWS V14.01,2013-03-11 12:05:00,
2013-03-11 07:10:00,64.8,63.3,29.85,SE,144,3.0,6.0,95,0.00,,---,0.00,VWS V14.01,2013-03-11 12:10:00,
2013-03-11 07:15:00,64.9,63.4,29.85,East,101,0.0,6.0,95,0.00,,---,0.00,VWS V14.01,2013-03-11 12:15:00,
2013-03-11 07:20:00,64.9,63.4,29.85,South,188,0.0,6.0,95,0.00,,---,0.00,VWS V14.01,2013-03-11 12:20:00,
2013-03-11 07:25:00,64.9,63.7,29.85,SSW,193,0.0,6.0,96,0.00,,---,0.00,VWS V14.01,2013-03-11 12:25:00,
2013-03-11 07:30:00,65.0,63.8,29.85,SE,135,1.0,1.0,96,0.00,,---,0.00,VWS V14.01,2013-03-11 12:30:00,
2013-03-11 07:35:00,65.1,63.9,29.85,SSE,165,0.0,3.0,96,0.00,,---,0.00,VWS V14.01,2013-03-11 12:35:00,
2013-03-11 07:40:00,65.2,64.0,29.85,SSW,203,1.0,3.0,96,0.00,,---,0.00,VWS V14.01,2013-03-11 12:40:00,
2013-03-11 07:45:00,65.3,63.8,29.85,SW,218,0.0,4.0,95,0.00,,---,0.00,VWS V14.01,2013-03-11 12:45:00,
2013-03-11 07:50:00,65.5,64.0,29.85,SW,215,1.0,5.0,95,0.00,,---,0.00,VWS V14.01,2013-03-11 12:50:00,
2013-03-11 07:55:00,65.8,64.3,29.85,South,179,0.0,5.0,95,0.00,,---,0.00,VWS V14.01,2013-03-11 12:55:00,
2013-03-11 08:00:00,66.2,64.4,29.85,SSW,213,0.0,1.0,94,0.00,,---,0.00,VWS V14.01,2013-03-11 13:00:00,
2013-03-11 08:05:00,66.4,64.3,29.85,SE,136,3.0,4.0,93,0.00,,---,0.00,VWS V14.01,2013-03-11 13:05:00,
2013-03-11 08:10:00,66.6,64.5,29.85,South,188,1.0,6.0,93,0.00,,---,0.00,VWS V14.01,2013-03-11 13:10:00,
2013-03-11 08:15:00,66.7,64.3,29.85,SSW,204,0.0,6.0,92,0.00,,---,0.00,VWS V14.01,2013-03-11 13:15:00,
2013-03-11 08:20:00,66.7,64.3,29.85,ESE,114,4.0,6.0,92,0.00,,---,0.00,VWS V14.01,2013-03-11 13:20:00,
2013-03-11 08:25:00,66.7,64.3,29.85,South,185,0.0,6.0,92,0.00,,---,0.00,VWS V14.01,2013-03-11 13:25:00,
2013-03-11 08:30:00,66.8,64.4,29.84,East,94,1.0,1.0,92,0.00,,---,0.00,VWS V14.01,2013-03-11 13:30:00,
2013-03-11 08:35:00,66.9,64.5,29.84,North,5,0.0,7.0,92,0.00,,---,0.00,VWS V14.01,2013-03-11 13:35:00,
2013-03-11 08:40:00,66.9,64.5,29.84,SSE,155,2.0,7.0,92,0.00,,---,0.00,VWS V14.01,2013-03-11 13:40:00,
2013-03-11 08:45:00,66.9,64.5,29.84,SSW,211,0.0,7.0,92,0.00,,---,0.00,VWS V14.01,2013-03-11 13:45:00,
2013-03-11 08:50:00,65.6,60.6,29.87,NW,318,3.0,9.0,84,0.01,,---,0.01,VWS V14.01,2013-03-11 13:50:00,
2013-03-11 08:55:00,62.2,57.6,29.87,SW,229,5.0,11.0,85,0.07,,---,0.07,VWS V14.01,2013-03-11 13:55:00,
2013-03-11 09:00:00,59.4,55.5,29.89,SSW,204,4.0,5.0,87,0.19,,---,0.19,VWS V14.01,2013-03-11 14:00:00,
2013-03-11 09:05:00,57.2,54.0,29.89,WNW,293,4.0,10.0,89,0.31,,---,0.31,VWS V14.01,2013-03-11 14:05:00,
2013-03-11 09:10:00,56.1,53.8,29.90,WNW,283,2.0,10.0,92,0.37,,---,0.37,VWS V14.01,2013-03-11 14:10:00,
2013-03-11 09:15:00,55.4,53.4,29.90,NNW,341,0.0,10.0,93,0.38,,---,0.38,VWS V14.01,2013-03-11 14:15:00,
2013-03-11 09:20:00,55.0,53.0,29.90,WNW,288,1.0,10.0,93,0.38,,---,0.38,VWS V14.01,2013-03-11 14:20:00,
2013-03-11 09:25:00,54.8,53.1,29.90,SW,225,5.0,10.0,94,0.38,,---,0.38,VWS V14.01,2013-03-11 14:25:00,
2013-03-11 09:30:00,54.6,52.9,29.90,NNW,328,1.0,1.0,94,0.38,,---,0.38,VWS V14.01,2013-03-11 14:30:00,
2013-03-11 09:35:00,54.4,52.7,29.90,North,358,2.0,7.0,94,0.38,,---,0.38,VWS V14.01,2013-03-11 14:35:00,
2013-03-11 09:40:00,54.3,52.6,29.91,NNW,332,1.0,7.0,94,0.38,,---,0.38,VWS V14.01,2013-03-11 14:40:00,
2013-03-11 09:45:00,54.2,52.8,29.91,NNW,339,0.0,7.0,95,0.38,,---,0.38,VWS V14.01,2013-03-11 14:45:00,
2013-03-11 09:50:00,53.9,52.2,29.91,WNW,300,2.0,7.0,94,0.39,,---,0.39,VWS V14.01,2013-03-11 14:50:00,
2013-03-11 09:55:00,53.5,51.8,29.91,NNE,15,7.0,10.0,94,0.39,,---,0.39,VWS V14.01,2013-03-11 14:55:00,
2013-03-11 10:00:00,53.0,51.0,29.92,NW,304,6.0,6.0,93,0.23,,---,0.39,VWS V14.01,2013-03-11 15:00:00,
2013-03-11 10:05:00,52.7,51.0,29.92,WNW,293,3.0,7.0,94,0.23,,---,0.39,VWS V14.01,2013-03-11 15:05:00,
2013-03-11 10:10:00,52.5,50.8,29.92,NW,325,0.0,7.0,94,0.23,,---,0.39,VWS V14.01,2013-03-11 15:10:00,
2013-03-11 10:15:00,52.4,50.7,29.92,North,8,1.0,7.0,94,0.23,,---,0.39,VWS V14.01,2013-03-11 15:15:00,
2013-03-11 10:20:00,52.3,50.6,29.92,SW,222,2.0,7.0,94,0.23,,---,0.39,VWS V14.01,2013-03-11 15:20:00,
2013-03-11 10:25:00,52.1,50.4,29.92,NW,325,2.0,9.0,94,0.23,,---,0.39,VWS V14.01,2013-03-11 15:25:00,
2013-03-11 10:30:00,51.7,50.0,29.93,WSW,256,1.0,3.0,94,0.01,,---,0.39,VWS V14.01,2013-03-11 15:30:00,
2013-03-11 10:35:00,51.5,49.8,29.92,SSW,194,1.0,6.0,94,0.01,,---,0.39,VWS V14.01,2013-03-11 15:35:00,
2013-03-11 10:40:00,51.4,49.5,29.92,West,267,4.0,13.0,93,0.01,,---,0.39,VWS V14.01,2013-03-11 15:40:00,
2013-03-11 10:45:00,51.3,49.3,29.92,WNW,302,2.0,13.0,93,0.01,,---,0.39,VWS V14.01,2013-03-11 15:45:00,
2013-03-11 10:50:00,51.2,49.2,29.92,WNW,298,5.0,13.0,93,0.01,,---,0.39,VWS V14.01,2013-03-11 15:50:00,
2013-03-11 10:55:00,51.2,49.2,29.91,North,353,4.0,13.0,93,0.01,,---,0.39,VWS V14.01,2013-03-11 15:55:00,
2013-03-11 11:00:00,51.0,49.0,29.93,WNW,293,1.0,3.0,93,0.00,,---,0.39,VWS V14.01,2013-03-11 16:00:00,
2013-03-11 11:05:00,50.9,49.0,29.91,NNE,15,0.0,6.0,93,0.01,,---,0.40,VWS V14.01,2013-03-11 16:05:00,
2013-03-11 11:10:00,50.8,48.8,29.91,NE,49,0.0,6.0,93,0.03,,---,0.42,VWS V14.01,2013-03-11 16:10:00,
2013-03-11 11:15:00,50.8,49.1,29.91,North,358,0.0,6.0,94,0.04,,---,0.43,VWS V14.01,2013-03-11 16:15:00,
2013-03-11 11:20:00,50.9,49.2,29.92,NNE,30,0.0,6.0,94,0.04,,---,0.43,VWS V14.01,2013-03-11 16:20:00,
2013-03-11 11:25:00,51.2,49.8,29.92,WSW,249,0.0,6.0,95,0.04,,---,0.43,VWS V14.01,2013-03-11 16:25:00,
2013-03-11 11:30:00,51.4,50.0,29.92,SE,129,0.0,1.0,95,0.04,,---,0.43,VWS V14.01,2013-03-11 16:30:00,
2013-03-11 11:35:00,51.4,50.0,29.92,NNW,345,2.0,5.0,95,0.04,,---,0.43,VWS V14.01,2013-03-11 16:35:00,
2013-03-11 11:40:00,51.5,50.1,29.91,NNW,336,0.0,5.0,95,0.04,,---,0.43,VWS V14.01,2013-03-11 16:40:00,
2013-03-11 11:45:00,51.6,50.2,29.91,NNW,339,0.0,5.0,95,0.04,,---,0.43,VWS V14.01,2013-03-11 16:45:00,
2013-03-11 11:50:00,51.7,50.0,29.91,ENE,60,1.0,5.0,94,0.04,,---,0.43,VWS V14.01,2013-03-11 16:50:00,
2013-03-11 11:55:00,51.9,50.2,29.92,West,273,0.0,5.0,94,0.04,,---,0.43,VWS V14.01,2013-03-11 16:55:00,
2013-03-11 12:00:00,52.1,50.4,29.92,NNW,338,3.0,3.0,94,0.04,,---,0.43,VWS V14.01,2013-03-11 17:00:00,
2013-03-11 12:05:00,52.2,50.5,29.91,NE,50,0.0,5.0,94,0.04,,---,0.43,VWS V14.01,2013-03-11 17:05:00,
2013-03-11 12:10:00,52.5,50.8,29.91,SE,134,0.0,5.0,94,0.04,,---,0.43,VWS V14.01,2013-03-11 17:10:00,
2013-03-11 12:15:00,52.8,50.8,29.91,NNE,25,5.0,8.0,93,0.04,,---,0.43,VWS V14.01,2013-03-11 17:15:00,
2013-03-11 12:20:00,53.3,51.0,29.91,NNW,332,3.0,8.0,92,0.04,,---,0.43,VWS V14.01,2013-03-11 17:20:00,
2013-03-11 12:25:00,53.9,51.3,29.90,West,269,1.0,8.0,91,0.04,,---,0.43,VWS V14.01,2013-03-11 17:25:00,
2013-03-11 12:30:00,54.3,51.1,29.90,SW,229,0.0,1.0,89,0.00,,---,0.43,VWS V14.01,2013-03-11 17:30:00,
2013-03-11 12:35:00,54.6,51.4,29.90,NNW,328,2.0,6.0,89,0.00,,---,0.43,VWS V14.01,2013-03-11 17:35:00,
2013-03-11 12:40:00,54.8,51.0,29.90,NNE,19,1.0,8.0,87,0.00,,---,0.43,VWS V14.01,2013-03-11 17:40:00,
2013-03-11 12:45:00,54.8,51.0,29.91,WSW,257,0.0,8.0,87,0.00,,---,0.43,VWS V14.01,2013-03-11 17:45:00,
2013-03-11 12:50:00,54.8,50.7,29.91,ENE,73,0.0,8.0,86,0.00,,---,0.43,VWS V14.01,2013-03-11 17:50:00,
2013-03-11 12:55:00,54.6,50.2,29.91,North,350,2.0,8.0,85,0.00,,---,0.43,VWS V14.01,2013-03-11 17:55:00,
2013-03-11 13:00:00,54.4,50.6,29.91,SW,228,0.0,1.0,87,0.00,,---,0.43,VWS V14.01,2013-03-11 18:00:00,
2013-03-11 13:05:00,54.3,50.5,29.91,NNW,336,1.0,3.0,87,0.00,,---,0.43,VWS V14.01,2013-03-11 18:05:00,
2013-03-11 13:10:00,54.1,50.0,29.90,WNW,285,2.0,5.0,86,0.00,,---,0.43,VWS V14.01,2013-03-11 18:10:00,
2013-03-11 13:15:00,53.9,49.8,29.89,NW,314,2.0,7.0,86,0.00,,---,0.43,VWS V14.01,2013-03-11 18:15:00,
2013-03-11 13:20:00,53.9,49.8,29.88,North,356,3.0,7.0,86,0.00,,---,0.43,VWS V14.01,2013-03-11 18:20:00,
2013-03-11 13:25:00,53.9,50.1,29.88,SW,225,1.0,7.0,87,0.00,,---,0.43,VWS V14.01,2013-03-11 18:25:00,
2013-03-11 13:30:00,53.9,50.1,29.88,WSW,243,1.0,1.0,87,0.00,,---,0.43,VWS V14.01,2013-03-11 18:30:00,
2013-03-11 13:35:00,54.0,49.9,29.89,SW,232,0.0,5.0,86,0.00,,---,0.43,VWS V14.01,2013-03-11 18:35:00,
2013-03-11 13:40:00,53.9,49.8,29.88,NNW,342,0.0,2.0,86,0.00,,---,0.43,VWS V14.01,2013-03-11 18:40:00,
2013-03-11 13:45:00,53.8,49.7,29.88,NNW,341,0.0,6.0,86,0.00,,---,0.43,VWS V14.01,2013-03-11 18:45:00,
2013-03-11 13:50:00,53.8,49.7,29.88,East,84,0.0,6.0,86,0.00,,---,0.43,VWS V14.01,2013-03-11 18:50:00,
2013-03-11 13:55:00,53.9,49.8,29.87,NNW,344,3.0,7.0,86,0.00,,---,0.43,VWS V14.01,2013-03-11 18:55:00,
2013-03-11 14:00:00,54.0,49.9,29.87,NE,50,0.0,6.0,86,0.00,,---,0.43,VWS V14.01,2013-03-11 19:00:00,
2013-03-11 14:05:00,54.0,49.9,29.86,ENE,77,2.0,6.0,86,0.00,,---,0.43,VWS V14.01,2013-03-11 19:05:00,
2013-03-11 14:10:00,54.2,50.1,29.86,North,355,1.0,6.0,86,0.00,,---,0.43,VWS V14.01,2013-03-11 19:10:00,
2013-03-11 14:15:00,54.6,50.2,29.87,SW,236,1.0,7.0,85,0.00,,---,0.43,VWS V14.01,2013-03-11 19:15:00,
2013-03-11 14:20:00,54.8,50.4,29.86,WNW,300,0.0,7.0,85,0.00,,---,0.43,VWS V14.01,2013-03-11 19:20:00,
2013-03-11 14:25:00,55.0,50.3,29.86,East,89,0.0,7.0,84,0.00,,---,0.43,VWS V14.01,2013-03-11 19:25:00,
2013-03-11 14:30:00,55.2,50.1,29.86,West,271,0.0,0.0,83,0.00,,---,0.43,VWS V14.01,2013-03-11 19:30:00,
2013-03-11 14:35:00,55.0,49.9,29.87,WSW,257,1.0,11.0,83,0.00,,---,0.43,VWS V14.01,2013-03-11 19:35:00,
2013-03-11 14:40:00,54.6,49.2,29.86,North,4,4.0,11.0,82,0.00,,---,0.43,VWS V14.01,2013-03-11 19:40:00,
2013-03-11 14:45:00,53.9,49.2,29.86,NW,307,1.0,11.0,84,0.00,,---,0.43,VWS V14.01,2013-03-11 19:45:00,
2013-03-11 14:50:00,53.6,49.2,29.86,NW,305,0.0,11.0,85,0.00,,---,0.43,VWS V14.01,2013-03-11 19:50:00,
2013-03-11 14:55:00,53.7,48.7,29.86,NW,307,5.0,11.0,83,0.00,,---,0.43,VWS V14.01,2013-03-11 19:55:00,
2013-03-11 15:00:00,54.1,49.1,29.86,NNW,346,3.0,4.0,83,0.00,,---,0.43,VWS V14.01,2013-03-11 20:00:00,
2013-03-11 15:05:00,54.5,48.8,29.86,West,281,2.0,4.0,81,0.00,,---,0.43,VWS V14.01,2013-03-11 20:05:00,
2013-03-11 15:10:00,54.9,49.2,29.86,NNE,27,8.0,8.0,81,0.00,,---,0.43,VWS V14.01,2013-03-11 20:10:00,
2013-03-11 15:15:00,55.0,48.6,29.85,North,356,4.0,9.0,79,0.00,,---,0.43,VWS V14.01,2013-03-11 20:15:00,
2013-03-11 15:20:00,55.5,48.4,29.85,North,349,3.0,9.0,77,0.00,,---,0.43,VWS V14.01,2013-03-11 20:20:00,
2013-03-11 15:25:00,55.7,48.6,29.86,NW,319,1.0,9.0,77,0.00,,---,0.43,VWS V14.01,2013-03-11 20:25:00,
2013-03-11 15:30:00,56.1,49.0,29.86,NW,311,1.0,3.0,77,0.00,,---,0.43,VWS V14.01,2013-03-11 20:30:00,
2013-03-11 15:35:00,56.5,49.0,29.86,North,8,2.0,6.0,76,0.00,,---,0.43,VWS V14.01,2013-03-11 20:35:00,
2013-03-11 15:40:00,56.5,48.3,29.86,NW,316,4.0,10.0,74,0.00,,---,0.43,VWS V14.01,2013-03-11 20:40:00,
2013-03-11 15:45:00,56.4,48.6,29.85,NW,323,1.0,10.0,75,0.00,,---,0.43,VWS V14.01,2013-03-11 20:45:00,
2013-03-11 15:50:00,56.6,49.1,29.85,North,1,2.0,10.0,76,0.00,,---,0.43,VWS V14.01,2013-03-11 20:50:00,
2013-03-11 15:55:00,56.3,48.8,29.85,NW,322,1.0,10.0,76,0.00,,---,0.43,VWS V14.01,2013-03-11 20:55:00,
2013-03-11 16:00:00,55.7,48.6,29.86,WNW,297,1.0,5.0,77,0.00,,---,0.43,VWS V14.01,2013-03-11 21:00:00,
2013-03-11 16:05:00,55.2,48.5,29.85,NNW,333,4.0,10.0,78,0.00,,---,0.43,VWS V14.01,2013-03-11 21:05:00,
2013-03-11 16:10:00,54.8,48.1,29.86,WNW,293,0.0,12.0,78,0.00,,---,0.43,VWS V14.01,2013-03-11 21:10:00,
2013-03-11 16:15:00,54.6,48.2,29.86,WNW,288,6.0,12.0,79,0.00,,---,0.43,VWS V14.01,2013-03-11 21:15:00,
2013-03-11 16:20:00,54.9,48.5,29.85,NE,53,4.0,12.0,79,0.00,,---,0.43,VWS V14.01,2013-03-11 21:20:00,
2013-03-11 16:25:00,54.7,48.3,29.85,NNE,32,4.0,12.0,79,0.00,,---,0.43,VWS V14.01,2013-03-11 21:25:00,
2013-03-11 16:30:00,54.2,48.2,29.85,North,353,1.0,5.0,80,0.00,,---,0.43,VWS V14.01,2013-03-11 21:30:00,
2013-03-11 16:35:00,54.0,48.0,29.85,ENE,77,3.0,7.0,80,0.00,,---,0.43,VWS V14.01,2013-03-11 21:35:00,
2013-03-11 16:40:00,54.0,47.6,29.85,WNW,302,3.0,8.0,79,0.00,,---,0.43,VWS V14.01,2013-03-11 21:40:00,
2013-03-11 16:45:00,54.1,47.7,29.86,NW,312,5.0,8.0,79,0.00,,---,0.43,VWS V14.01,2013-03-11 21:45:00,
2013-03-11 16:50:00,54.3,47.9,29.86,SSW,211,0.0,8.0,79,0.00,,---,0.43,VWS V14.01,2013-03-11 21:50:00,
2013-03-11 16:55:00,54.4,48.0,29.86,NNW,328,2.0,8.0,79,0.00,,---,0.43,VWS V14.01,2013-03-11 21:55:00,
2013-03-11 17:00:00,54.2,48.2,29.86,North,4,5.0,5.0,80,0.00,,---,0.43,VWS V14.01,2013-03-11 22:00:00,
2013-03-11 17:04:00,54.0,48.0,29.86,NNE,16,3.0,7.0,80,0.00,,---,0.43,VWS V14.01,2013-03-11 22:04:00,
2013-03-11 17:09:00,53.9,47.9,29.86,WSW,252,0.0,7.0,80,0.00,,---,0.43,VWS V14.01,2013-03-11 22:09:00,
2013-03-11 17:14:00,54.0,47.3,29.86,WNW,300,0.0,7.0,78,0.00,,---,0.43,VWS V14.01,2013-03-11 22:14:00,
2013-03-11 17:20:00,53.9,46.9,29.87,NNW,339,2.0,7.0,77,0.00,,---,0.43,VWS V14.01,2013-03-11 22:20:00,
2013-03-11 17:24:00,53.6,46.2,29.87,ENE,69,1.0,9.0,76,0.00,,---,0.43,VWS V14.01,2013-03-11 22:24:00,
2013-03-11 17:29:00,53.6,46.2,29.87,WNW,293,1.0,3.0,76,0.00,,---,0.43,VWS V14.01,2013-03-11 22:29:00,
2013-03-11 17:30:00,53.6,46.2,29.87,NW,305,0.0,9.0,76,0.00,,---,0.43,VWS V14.01,2013-03-11 22:30:00,
2013-03-11 17:34:00,53.5,45.8,29.87,NNW,343,1.0,7.0,75,0.00,,---,0.43,VWS V14.01,2013-03-11 22:34:00,
2013-03-11 17:39:00,53.6,45.9,29.88,WNW,289,2.0,7.0,75,0.00,,---,0.43,VWS V14.01,2013-03-11 22:39:00,
2013-03-11 17:44:00,53.4,45.7,29.88,NNE,18,2.0,9.0,75,0.00,,---,0.43,VWS V14.01,2013-03-11 22:44:00,
2013-03-11 17:49:00,53.4,45.7,29.88,North,354,2.0,9.0,75,0.00,,---,0.43,VWS V14.01,2013-03-11 22:49:00,
2013-03-11 17:54:00,53.2,45.5,29.89,NNW,342,4.0,9.0,75,0.00,,---,0.43,VWS V14.01,2013-03-11 22:54:00,
2013-03-11 17:59:00,53.0,45.3,29.89,ESE,105,2.0,2.0,75,0.00,,---,0.43,VWS V14.01,2013-03-11 22:59:00,
2013-03-11 18:00:00,53.0,45.3,29.89,ENE,63,2.0,9.0,75,0.00,,---,0.43,VWS V14.01,2013-03-11 23:00:00,
2013-03-11 18:05:00,52.8,45.5,29.89,NW,318,1.0,9.0,76,0.00,,---,0.43,VWS V14.01,2013-03-11 23:05:00,
2013-03-11 18:10:00,52.7,45.4,29.89,West,264,2.0,10.0,76,0.00,,---,0.43,VWS V14.01,2013-03-11 23:10:00,
2013-03-11 18:15:00,52.5,45.2,29.89,NW,316,2.0,10.0,76,0.00,,---,0.43,VWS V14.01,2013-03-11 23:15:00,
2013-03-11 18:20:00,52.3,45.0,29.89,WNW,288,0.0,10.0,76,0.00,,---,0.43,VWS V14.01,2013-03-11 23:20:00,
2013-03-11 18:24:00,52.1,44.8,29.90,NW,311,3.0,10.0,76,0.00,,---,0.43,VWS V14.01,2013-03-11 23:24:00,
2013-03-11 18:29:00,51.9,44.9,29.90,NW,311,2.0,2.0,77,0.00,,---,0.43,VWS V14.01,2013-03-11 23:29:00,
2013-03-11 18:30:00,52.0,45.0,29.90,SW,214,1.0,10.0,77,0.00,,---,0.43,VWS V14.01,2013-03-11 23:30:00,
2013-03-11 18:34:00,51.8,44.8,29.90,North,349,1.0,5.0,77,0.00,,---,0.43,VWS V14.01,2013-03-11 23:34:00,
2013-03-11 18:39:00,51.6,45.0,29.90,NNW,342,3.0,9.0,78,0.00,,---,0.43,VWS V14.01,2013-03-11 23:39:00,
2013-03-11 18:44:00,51.4,44.8,29.90,East,82,2.0,9.0,78,0.00,,---,0.43,VWS V14.01,2013-03-11 23:44:00,
2013-03-11 18:49:00,51.1,44.5,29.90,North,350,2.0,9.0,78,0.00,,---,0.43,VWS V14.01,2013-03-11 23:49:00,
2013-03-11 18:54:00,50.9,44.6,29.90,NE,39,0.0,9.0,79,0.00,,---,0.43,VWS V14.01,2013-03-11 23:54:00,
2013-03-11 18:59:00,50.6,44.3,29.90,NW,325,0.0,0.0,79,0.00,,---,0.43,VWS V14.01,2013-03-11 23:59:00,
2013-03-11 19:00:00,50.6,44.3,29.90,NW,325,0.0,9.0,79,0.00,,---,0.43,VWS V14.01,2013-03-12 00:00:00,
2013-03-11 19:04:00,50.4,44.5,29.90,NW,304,0.0,3.0,80,0.00,,---,0.43,VWS V14.01,2013-03-12 00:04:00,
2013-03-11 19:09:00,50.1,44.5,29.90,NNW,346,0.0,3.0,81,0.00,,---,0.43,VWS V14.01,2013-03-12 00:09:00,
2013-03-11 19:14:00,49.8,44.5,29.91,NNW,333,0.0,3.0,82,0.00,,---,0.43,VWS V14.01,2013-03-12 00:14:00,
2013-03-11 19:19:00,49.5,44.2,29.91,NNW,339,0.0,3.0,82,0.00,,---,0.43,VWS V14.01,2013-03-12 00:19:00,
2013-03-11 19:24:00,49.2,44.3,29.91,WNW,302,0.0,3.0,83,0.00,,---,0.43,VWS V14.01,2013-03-12 00:24:00,
2013-03-11 19:29:00,48.9,44.3,29.91,North,350,0.0,0.0,84,0.00,,---,0.43,VWS V14.01,2013-03-12 00:29:00,
2013-03-11 19:30:00,48.9,44.3,29.91,North,350,0.0,3.0,84,0.00,,---,0.43,VWS V14.01,2013-03-12 00:30:00,
2013-03-11 19:34:00,48.7,44.1,29.91,NNW,336,1.0,1.0,84,0.00,,---,0.43,VWS V14.01,2013-03-12 00:34:00,
2013-03-11 19:39:00,48.5,44.2,29.91,NW,304,0.0,2.0,85,0.00,,---,0.43,VWS V14.01,2013-03-12 00:39:00,
2013-03-11 19:44:00,48.3,44.0,29.91,NW,304,0.0,2.0,85,0.00,,---,0.43,VWS V14.01,2013-03-12 00:44:00,
2013-03-11 19:49:00,48.1,43.8,29.92,NE,36,1.0,2.0,85,0.00,,---,0.43,VWS V14.01,2013-03-12 00:49:00,
2013-03-11 19:54:00,48.0,44.0,29.92,North,11,0.0,2.0,86,0.00,,---,0.43,VWS V14.01,2013-03-12 00:54:00,
2013-03-11 19:59:00,47.8,43.8,29.92,NNW,345,0.0,0.0,86,0.00,,---,0.43,VWS V14.01,2013-03-12 00:59:00,
2013-03-11 20:00:00,47.8,43.8,29.92,NNW,345,0.0,2.0,86,0.00,,---,0.43,VWS V14.01,2013-03-12 01:00:00,
2013-03-11 20:04:00,47.7,43.7,29.92,NNW,344,0.0,0.0,86,0.00,,---,0.43,VWS V14.01,2013-03-12 01:04:00,
2013-03-11 20:09:00,47.4,43.4,29.92,NNW,344,0.0,0.0,86,0.00,,---,0.43,VWS V14.01,2013-03-12 01:09:00,
2013-03-11 20:14:00,47.0,43.3,29.92,NNW,344,0.0,0.0,87,0.00,,---,0.43,VWS V14.01,2013-03-12 01:14:00,
2013-03-11 20:19:00,46.6,43.2,29.92,NNW,344,0.0,0.0,88,0.00,,---,0.43,VWS V14.01,2013-03-12 01:19:00,
2013-03-11 20:24:00,46.1,42.8,29.93,NNW,344,0.0,0.0,88,0.00,,---,0.43,VWS V14.01,2013-03-12 01:24:00,
2013-03-11 20:29:00,45.7,42.7,29.93,NNW,344,0.0,0.0,89,0.00,,---,0.43,VWS V14.01,2013-03-12 01:29:00,
2013-03-11 20:30:00,45.7,42.7,29.93,NNW,344,0.0,0.0,89,0.00,,---,0.43,VWS V14.01,2013-03-12 01:30:00,
2013-03-11 20:34:00,45.3,42.5,29.93,NNW,344,0.0,0.0,90,0.00,,---,0.43,VWS V14.01,2013-03-12 01:34:00,
2013-03-11 20:39:00,44.9,42.2,29.93,NNW,344,0.0,0.0,90,0.00,,---,0.43,VWS V14.01,2013-03-12 01:39:00,
2013-03-11 20:44:00,44.8,42.3,29.94,NNW,344,0.0,0.0,91,0.00,,---,0.43,VWS V14.01,2013-03-12 01:44:00,
2013-03-11 20:49:00,44.5,42.0,29.94,NNW,344,0.0,0.0,91,0.00,,---,0.43,VWS V14.01,2013-03-12 01:49:00,
2013-03-11 20:54:00,44.2,41.7,29.94,NNW,345,0.0,0.0,91,0.00,,---,0.43,VWS V14.01,2013-03-12 01:54:00,
2013-03-11 20:59:00,44.0,41.8,29.94,NNW,344,0.0,0.0,92,0.00,,---,0.43,VWS V14.01,2013-03-12 01:59:00,
2013-03-11 21:00:00,44.0,41.8,29.94,NNW,344,0.0,0.0,92,0.00,,---,0.43,VWS V14.01,2013-03-12 02:00:00,
2013-03-11 21:04:00,43.9,42.0,29.94,NNW,345,0.0,0.0,93,0.00,,---,0.43,VWS V14.01,2013-03-12 02:04:00,
2013-03-11 21:09:00,43.8,41.9,29.94,NNW,345,0.0,0.0,93,0.00,,---,0.43,VWS V14.01,2013-03-12 02:09:00,
2013-03-11 21:14:00,43.8,41.9,29.94,NNW,344,0.0,0.0,93,0.00,,---,0.43,VWS V14.01,2013-03-12 02:14:00,
2013-03-11 21:19:00,43.7,41.8,29.95,NNW,344,0.0,0.0,93,0.00,,---,0.43,VWS V14.01,2013-03-12 02:19:00,
2013-03-11 21:24:00,43.6,41.7,29.95,NNW,345,0.0,0.0,93,0.00,,---,0.43,VWS V14.01,2013-03-12 02:24:00,
2013-03-11 21:29:00,43.4,41.5,29.95,NNW,344,0.0,0.0,93,0.00,,---,0.43,VWS V14.01,2013-03-12 02:29:00,
2013-03-11 21:30:00,43.5,41.6,29.95,NNW,344,0.0,0.0,93,0.00,,---,0.43,VWS V14.01,2013-03-12 02:30:00,
2013-03-11 21:34:00,43.3,41.4,29.95,NNW,345,0.0,0.0,93,0.00,,---,0.43,VWS V14.01,2013-03-12 02:34:00,
2013-03-11 21:39:00,43.1,41.2,29.96,NNW,345,0.0,0.0,93,0.00,,---,0.43,VWS V14.01,2013-03-12 02:39:00,
2013-03-11 21:44:00,42.9,41.3,29.96,NNW,345,0.0,0.0,94,0.00,,---,0.43,VWS V14.01,2013-03-12 02:44:00,
2013-03-11 21:49:00,42.8,41.2,29.96,NNW,344,0.0,0.0,94,0.00,,---,0.43,VWS V14.01,2013-03-12 02:49:00,
2013-03-11 21:54:00,42.8,41.2,29.96,NNW,344,0.0,0.0,94,0.00,,---,0.43,VWS V14.01,2013-03-12 02:54:00,
2013-03-11 21:59:00,42.7,41.1,29.96,NNW,345,0.0,0.0,94,0.00,,---,0.43,VWS V14.01,2013-03-12 02:59:00,
2013-03-11 22:00:00,42.7,41.1,29.96,NNW,344,0.0,0.0,94,0.00,,---,0.43,VWS V14.01,2013-03-12 03:00:00,
2013-03-11 22:04:00,42.6,41.0,29.96,NNW,345,0.0,0.0,94,0.00,,---,0.43,VWS V14.01,2013-03-12 03:04:00,
2013-03-11 22:09:00,42.5,40.9,29.96,NNW,344,0.0,0.0,94,0.00,,---,0.43,VWS V14.01,2013-03-12 03:09:00,
2013-03-11 22:14:00,42.4,40.8,29.96,NNW,345,0.0,0.0,94,0.00,,---,0.43,VWS V14.01,2013-03-12 03:14:00,
2013-03-11 22:19:00,42.3,41.0,29.97,NNW,344,0.0,0.0,95,0.00,,---,0.43,VWS V14.01,2013-03-12 03:19:00,
2013-03-11 22:24:00,42.1,40.8,29.97,NNW,344,0.0,0.0,95,0.00,,---,0.43,VWS V14.01,2013-03-12 03:24:00,
2013-03-11 22:29:00,42.0,40.7,29.97,NNW,345,0.0,0.0,95,0.00,,---,0.43,VWS V14.01,2013-03-12 03:29:00,
2013-03-11 22:30:00,42.0,40.7,29.97,NNW,344,0.0,0.0,95,0.00,,---,0.43,VWS V14.01,2013-03-12 03:30:00,
2013-03-11 22:34:00,41.9,40.6,29.97,NNW,344,0.0,0.0,95,0.00,,---,0.43,VWS V14.01,2013-03-12 03:34:00,
2013-03-11 22:39:00,41.8,40.5,29.97,NNW,345,0.0,0.0,95,0.00,,---,0.43,VWS V14.01,2013-03-12 03:39:00,
2013-03-11 22:44:00,41.7,40.4,29.98,NNW,344,0.0,0.0,95,0.00,,---,0.43,VWS V14.01,2013-03-12 03:44:00,
2013-03-11 22:49:00,41.6,40.3,29.98,NNW,345,0.0,0.0,95,0.00,,---,0.43,VWS V14.01,2013-03-12 03:49:00,
2013-03-11 22:54:00,41.5,40.2,29.98,NNW,344,0.0,0.0,95,0.00,,---,0.43,VWS V14.01,2013-03-12 03:54:00,
2013-03-11 22:59:00,41.5,40.2,29.98,NNW,344,0.0,0.0,95,0.00,,---,0.43,VWS V14.01,2013-03-12 03:59:00,
2013-03-11 23:00:00,41.5,40.2,29.98,NNW,344,0.0,0.0,95,0.00,,---,0.43,VWS V14.01,2013-03-12 04:00:00,
2013-03-11 23:05:00,41.5,40.2,29.98,NNW,345,0.0,0.0,95,0.00,,---,0.43,VWS V14.01,2013-03-12 04:05:00,
2013-03-11 23:10:00,41.5,40.2,29.98,NNW,344,0.0,0.0,95,0.00,,---,0.43,VWS V14.01,2013-03-12 04:10:00,
2013-03-11 23:15:00,41.6,40.3,29.98,NNW,344,0.0,0.0,95,0.00,,---,0.43,VWS V14.01,2013-03-12 04:15:00,
2013-03-11 23:20:00,41.6,40.3,29.98,NNW,345,0.0,0.0,95,0.00,,---,0.43,VWS V14.01,2013-03-12 04:20:00,
2013-03-11 23:25:00,41.7,40.7,29.98,West,277,0.0,1.0,96,0.00,,---,0.43,VWS V14.01,2013-03-12 04:25:00,
2013-03-11 23:30:00,41.9,40.8,29.98,West,271,0.0,0.0,96,0.00,,---,0.43,VWS V14.01,2013-03-12 04:30:00,
2013-03-11 23:35:00,42.0,40.9,29.98,West,271,0.0,0.0,96,0.00,,---,0.43,VWS V14.01,2013-03-12 04:35:00,
2013-03-11 23:40:00,41.9,40.8,29.98,West,271,0.0,0.0,96,0.00,,---,0.43,VWS V14.01,2013-03-12 04:40:00,
2013-03-11 23:45:00,42.0,40.9,29.98,West,271,0.0,0.0,96,0.00,,---,0.43,VWS V14.01,2013-03-12 04:45:00,
2013-03-11 23:50:00,42.1,41.0,29.98,West,271,0.0,0.0,96,0.00,,---,0.43,VWS V14.01,2013-03-12 04:50:00,
2013-03-11 23:55:00,42.2,41.1,29.98,West,273,0.0,1.0,96,0.00,,---,0.43,VWS V14.01,2013-03-12 04:55:00,